Find Runner-1

NORAD ID: 56953 Int'l Des: 2023-084 Owner: IMAG/FACH Country: IL operational
LEOCIRCULARRETROGRADESSO

現在のビュー

3D地球を読み込み中...

About Runner-1

Runner-1 (NORAD 56953) is a satellite launched Jun 12, 2023 by IMAG/FACH of IL. It operates in LEO, CIRCULAR, RETROGRADE, SSO orbit with a mass of 86.00 kg.

次回通過

Passes for default location (London). Set your location on the main map for personalized predictions.

高度履歴

Loading altitude history...

軌道要素

1 56953U 23084X 26194.87307984 .00006282 00000-0 16915-3 0 9996
2 56953 97.6268 337.9987 0007405 208.5859 151.4980 15.38208361171708
Epoch: Jul 13, 2026 • Age: 7 hours

現在のステータス

高度 477.4 km
遠地点 / 近地点 N/A
速度 7.63 km/s
衛星直下点 -82.41°S, 69.27°E
打ち上げ日 Jun 12, 2023
運用期間 3 years
タイプ other

技術仕様

分類 Payload
質量 86.00 kg
乾燥質量 86.00 kg
総質量 86.00 kg
長さ 0.85 m
直径 0.55 m
スパン 0.85 m
形状 Box
製造者 TYVAK/IMAG
バスタイプ Runner
フェーズステータス In Orbit
所有者/国 IMAG/FACH/IL

Most Searched